OPS 4682 DEB, 13131

Orbit data source: Space-Track

OPS 4682 DEB, 13131 is space debris in LEO originally from a launch on Sat, 03 Apr 1965 UTC launched from the Air Force Western Test Range (AFWTR). Debris objects in space refer to the collection of defunct objects orbiting the Earth. Examples of debris include non-operational satellites, rocket bodies, and fragments generated from explosions, collisions, or faulty payload assembly.

Loading next visibility...
Identifier
13131, 1965-027H
Orbit
LEO
Country
Flag of USUS
Related business
Manufacturer
Unknown
Mission
Spacecraft
Bus & Motor
Unknown
Mass
Unknown
Launch date (UTC)
1965-04-03 (61 years ago)
Launch vehicle
Unknown
Launch site
Air Force Western Test Range (AFWTR)
Object type
Payload
Rocket body
Debris
Shape & HBR
Unknown shape, 0.1 m
Radar Cross Section
Medium (>0.1 m² and <1 m²)

Expand to show TLE details & history
Last TLE update: 1 day ago

TLE from 1 day ago
0 OPS 4682 DEB
1 13131U 65027H   26234.78953358 -.00000031  00000-0 -13012-3 0  9990
2 13131  90.2367 354.8265 0028821 249.3681 268.2643 12.98072713639341
Epoch: 2026-08-22T18:56Z
TLE epoch observation values (Epoch: 2026-08-22T18:56:55.701Z)
Latitude
22.71184°
Longitude
-80.40191°
Altitude
1,273.128 km
Speed
7.221 km/s
True Right ascension
11h 39m 42s
True Declination
22° 35' 52"
Sunlit
Object was in daylight at epoch
Visualization orbit readout
Latitude
Unknown
Longitude
Unknown
Altitude
Unknown
Speed
Unknown
Apparent Right ascension
Unknown
Apparent Declination
Unknown
Sunlit
N/A
Visualization observer readout
Local Sidereal Time
17:51:29
Azimuth
Unknown
Elevation
Unknown
Doppler factor
Unknown
Orbital elements
Apogee altitude
1,288.81 km
Perigee altitude
1,244.744 km
Semi-major axis
7,644.914 km
Eccentricity
0.00288
Inclination
90.2367°
RAAN
354.8265°
Arg. of periapsis
249.3681°
True anomaly
267.93423°
Mean anomaly
268.2643°
Eccentric anomaly
268.09926°
Mean motion
3.24701 °/min
Orbital period
110.87 mins
BSTAR
-0.00013012
Loading maneuver chart data...
Computing Atmospheric mass density...
Loading historical data...
Loading historical data...
Loading historical data...
Loading historical data...
Loading historical data...
Loading historical data...
Loading historical data...

Documentation

Showing up to 5 results
|